Location: Unspecified
(0.0000°N, 0.0000°E)
Time: 11:37:22
(UTC+00:00)

Kosmos-2233 - Pass Details

Date: 01 March 2024
Orbit: 950 x 1007 km, 82.9° (Epoch: 25 April)

Event Time Altitude Azimuth Distance (km) Brightness Sun altitude
Rises 18:54:14 0° 187° (S) 3,631 8.7 -10.4°
Reaches altitude 10° 18:56:43 10° 188° (S) 2,689 8.0 -11.0°
Maximum altitude 19:02:51 75° 273° (W) 1,000 5.7 -12.6°
Drops below altitude 10° 19:09:03 10° 358° (N) 2,715 7.8 -14.1°
Sets 19:11:35 0° 360° (N) 3,669 8.4 -14.7°
